Location: Byszew
(52.1813°N, 19.2693°E)
Time: 01:46:10
(UTC+00:00)

Envisat - Pass Details

Date: 01 February 2022
Orbit: 764 x 765 km, 98.2° (Epoch: 28 May)

Event Time Altitude Azimuth Distance (km) Brightness Sun altitude
Rises 03:53:19 0° 14° (NNE) 3,244 6.4 -23.1°
Reaches altitude 10° 03:55:37 10° 14° (NNE) 2,314 5.6 -22.7°
Maximum altitude 04:00:44 87° 285° (WNW) 773 2.9 -21.9°
Drops below altitude 10° 04:05:49 10° 198° (SSW) 2,298 5.3 -21.2°
Sets 04:08:06 0° 198° (SSW) 3,220 6.1 -20.8°
